Weather History for KPIT - November, 2014

Change the Weather History Date:

Sunday, November 23, 2014

  Actual Average Record
Temperature  
Mean Temperature 54 °F 40 °F  
Max Temperature 63 °F 48 °F 74 °F (1979)
Min Temperature 44 °F 33 °F 8 °F (1880)
Degree Days  
Heating Degree Days 11 25  
Month to date heating degree days 603 477  
Since 1 July heating degree days 1063 978  
Cooling Degree Days 0 0  
Month to date cooling degree days 0 0  
Year to date cooling degree days 700 736  
Growing Degree Days 4 (Base 50)    
Moisture  
Dew Point 37 °F    
Average Humidity 64    
Maximum Humidity 89    
Minimum Humidity 39    
Precipitation  
Precipitation 0.15 in 0.11 in 1.33 in (1961)
Month to date precipitation 1.72 2.47  
Year to date precipitation 33.96 34.58  
Snow  
Snow 0.00 in 0.10 in 2.40 in (2005)
Month to date snowfall 0.5 1.3  
Since 1 July snowfall 0.5 1.7  
Snow Depth 0.00 in    
Sea Level Pressure  
Sea Level Pressure 29.95 in    
Wind  
Wind Speed 9 mph (SSE)    
Max Wind Speed 21 mph    
Max Gust Speed 28 mph    
Visibility 10 miles    
Events Rain    
T = Trace of Precipitation, MM = Missing Value Source: NWS Daily Summary

Daily Weather History Graph

Daily Weather History Graph

Search for Another Location

Airport or City:

Trip Planner

Search our weather history database for the weather conditions in past years. The results will help you decide how hot, cold, wet, or windy it might be!

Date:

Astronomy

Nov. 23, 2014 Rise Set
Actual Time 7:16 AM EST 4:57 PM EST
Civil Twilight 6:46 AM EST 5:27 PM EST
Nautical Twilight 6:13 AM EST 6:01 PM EST
Astronomical Twilight 5:40 AM EST 6:33 PM EST
Moon 8:10 AM EST (11/23) 6:19 PM EST (11/23)
Length of Visible Light 10h 41m
Length of Day
9h 41m
New Moon, 2% of the Moon is Illuminated
Nov 23
New Moon
Nov 29
First Quarter
Dec 6
Full
Dec 14
Last Quarter
Dec 21
New

Hourly Weather History & Observations

Time (EST) Temp. Windchill Dew Point Humidity Pressure Visibility Wind Dir Wind Speed Gust Speed Precip Events Conditions
12:51 AM 50.0 °F - 27.0 °F 41% 30.14 in 10.0 mi SSW 9.2 mph - N/A   Overcast
1:51 AM 50.0 °F - 27.0 °F 41% 30.13 in 10.0 mi SSW 6.9 mph - N/A   Overcast
2:51 AM 50.0 °F - 28.0 °F 43% 30.14 in 10.0 mi WSW 3.5 mph - N/A   Overcast
3:51 AM 50.0 °F - 28.9 °F 44% 30.13 in 10.0 mi SSW 4.6 mph - 0.00 in Rain Light Rain
4:51 AM 48.0 °F - 32.0 °F 54% 30.12 in 10.0 mi South 3.5 mph - 0.00 in   Overcast
5:51 AM 48.0 °F - 30.9 °F 52% 30.12 in 10.0 mi SSE 4.6 mph - N/A   Overcast
6:51 AM 46.9 °F - 30.9 °F 54% 30.13 in 10.0 mi SE 4.6 mph - N/A   Mostly Cloudy
7:51 AM 45.0 °F 42.6 °F 30.0 °F 56% 30.12 in 10.0 mi SE 4.6 mph - N/A   Overcast
8:51 AM 46.9 °F - 30.0 °F 52% 30.12 in 10.0 mi Variable 6.9 mph - N/A   Overcast
9:51 AM 51.1 °F - 30.9 °F 46% 30.12 in 10.0 mi South 4.6 mph - N/A   Overcast
10:51 AM 55.9 °F - 34.0 °F 44% 30.08 in 10.0 mi South 8.1 mph - N/A   Mostly Cloudy
11:51 AM 59.0 °F - 37.9 °F 46% 30.03 in 10.0 mi South 6.9 mph - N/A   Mostly Cloudy
12:51 PM 61.0 °F - 42.1 °F 50% 29.99 in 10.0 mi SE 9.2 mph - N/A   Mostly Cloudy
1:51 PM 63.0 °F - 44.1 °F 50% 29.95 in 10.0 mi SSE 8.1 mph - N/A   Overcast
2:51 PM 62.1 °F - 45.0 °F 53% 29.91 in 10.0 mi SE 10.4 mph - N/A   Overcast
3:51 PM 62.1 °F - 46.0 °F 56% 29.87 in 10.0 mi ESE 10.4 mph - N/A   Overcast
4:51 PM 60.1 °F - 46.0 °F 60% 29.84 in 10.0 mi SE 11.5 mph - N/A   Overcast
5:51 PM 59.0 °F - 42.1 °F 53% 29.80 in 10.0 mi ESE 13.8 mph - N/A   Overcast
6:51 PM 57.9 °F - 39.0 °F 49% 29.76 in 10.0 mi SE 13.8 mph - N/A   Overcast
7:51 PM 57.0 °F - 39.9 °F 53% 29.72 in 10.0 mi SE 12.7 mph - 0.00 in Rain Light Rain
8:51 PM 54.0 °F - 45.0 °F 72% 29.71 in 9.0 mi SE 9.2 mph - 0.01 in Rain Light Rain
9:51 PM 53.1 °F - 46.9 °F 80% 29.64 in 6.0 mi ESE 11.5 mph - 0.01 in Rain Light Rain
10:51 PM 53.1 °F - 50.0 °F 89% 29.57 in 7.0 mi SE 16.1 mph - 0.05 in Rain Light Rain
11:51 PM 54.0 °F - 52.0 °F 93% 29.47 in 10.0 mi SE 16.1 mph 26.5 mph 0.08 in Rain Light Rain